SKU1650 SCEL-SCSE

Flight info

Callsign SKU1650
Flight time 0h 43m
Altitude 32000
Route TENUT5 TENUT UQ802 KUGAP KUGAP5
Aircraft A319/M-SDE3FGHIRWY/LB1

Departure

Time 2026-04-20 14:40
Airport Comodoro Arturo Merino Benítez International Airport (SCEL)

Arrival

Time 2026-04-20 15:23
Airport La Florida Airport (SCSE)
Time Latitude Longitude Altitude Speed Heading
2026-04-20 14:26 -33.39740 -70.79827 1565 ft 0 kts 357°
2026-04-20 14:29 -33.39742 -70.79827 1565 ft 2 kts 357°
2026-04-20 14:29 -33.39765 -70.79826 1565 ft 3 kts 357°
2026-04-20 14:29 -33.39789 -70.79825 1565 ft 3 kts 357°
2026-04-20 14:29 -33.39810 -70.79824 1565 ft 3 kts 354°
2026-04-20 14:30 -33.39831 -70.79816 1565 ft 3 kts 314°
2026-04-20 14:30 -33.39840 -70.79793 1565 ft 3 kts 271°
2026-04-20 14:30 -33.39840 -70.79781 1565 ft 0 kts 268°
2026-04-20 14:33 -33.39840 -70.79782 1565 ft 0 kts 268°
2026-04-20 14:33 -33.39840 -70.79789 1565 ft 2 kts 268°
2026-04-20 14:33 -33.39842 -70.79827 1565 ft 7 kts 268°
2026-04-20 14:33 -33.39844 -70.79888 1565 ft 7 kts 267°
2026-04-20 14:34 -33.39846 -70.79926 1565 ft 3 kts 268°
2026-04-20 14:34 -33.39846 -70.79955 1565 ft 4 kts 268°
2026-04-20 14:34 -33.39847 -70.79985 1566 ft 4 kts 268°
2026-04-20 14:34 -33.39863 -70.80017 1566 ft 6 kts 213°
2026-04-20 14:35 -33.39915 -70.80020 1566 ft 10 kts 176°
2026-04-20 14:35 -33.39997 -70.80013 1566 ft 14 kts 176°
2026-04-20 14:35 -33.40099 -70.80005 1567 ft 14 kts 176°
2026-04-20 14:35 -33.40185 -70.79999 1567 ft 11 kts 176°
2026-04-20 14:36 -33.40266 -70.79991 1567 ft 12 kts 176°
2026-04-20 14:36 -33.40350 -70.79985 1567 ft 11 kts 176°
2026-04-20 14:36 -33.40415 -70.79979 1567 ft 8 kts 175°
2026-04-20 14:36 -33.40458 -70.79976 1567 ft 5 kts 177°
2026-04-20 14:37 -33.40490 -70.79974 1566 ft 5 kts 178°
2026-04-20 14:37 -33.40523 -70.79973 1566 ft 5 kts 178°
2026-04-20 14:37 -33.40546 -70.79973 1566 ft 5 kts 178°
2026-04-20 14:37 -33.40581 -70.79990 1567 ft 6 kts 231°
2026-04-20 14:38 -33.40591 -70.80034 1568 ft 5 kts 264°
2026-04-20 14:38 -33.40594 -70.80082 1571 ft 6 kts 269°
2026-04-20 14:38 -33.40594 -70.80127 1573 ft 2 kts 269°
2026-04-20 14:38 -33.40594 -70.80147 1574 ft 6 kts 270°
2026-04-20 14:39 -33.40570 -70.80194 1574 ft 7 kts 352°
2026-04-20 14:39 -33.40516 -70.80196 1574 ft 20 kts 357°
2026-04-20 14:39 -33.40080 -70.80219 1574 ft 102 kts 357°
2026-04-20 14:39 -33.39139 -70.80269 1575 ft 166 kts 357°
2026-04-20 14:40 -33.37920 -70.80342 2061 ft 181 kts 358°
2026-04-20 14:40 -33.36620 -70.80417 2697 ft 197 kts 354°
2026-04-20 14:40 -33.35166 -70.80500 3142 ft 222 kts 356°
2026-04-20 14:40 -33.33541 -70.80592 3715 ft 246 kts 356°
2026-04-20 14:41 -33.31779 -70.80687 4604 ft 257 kts 357°
2026-04-20 14:41 -33.29988 -70.80781 5723 ft 259 kts 356°
2026-04-20 14:41 -33.28189 -70.80877 6856 ft 259 kts 356°
2026-04-20 14:41 -33.26382 -70.80977 7924 ft 261 kts 355°
2026-04-20 14:42 -33.24567 -70.81077 9027 ft 262 kts 355°
2026-04-20 14:42 -33.22742 -70.81177 10120 ft 264 kts 354°
2026-04-20 14:42 -33.20845 -70.81283 10643 ft 284 kts 354°
2026-04-20 14:42 -33.18821 -70.81399 11280 ft 296 kts 354°
2026-04-20 14:43 -33.16744 -70.81513 12107 ft 302 kts 354°
2026-04-20 14:43 -33.14628 -70.81628 12980 ft 307 kts 354°
2026-04-20 14:43 -33.12481 -70.81743 13840 ft 311 kts 353°
2026-04-20 14:43 -33.10302 -70.81862 14615 ft 315 kts 353°
2026-04-20 14:44 -33.08123 -70.81985 15332 ft 320 kts 353°
2026-04-20 14:44 -33.05887 -70.82111 16052 ft 324 kts 353°
2026-04-20 14:44 -33.03618 -70.82258 16759 ft 329 kts 351°
2026-04-20 14:44 -33.01328 -70.82490 17499 ft 331 kts 349°
2026-04-20 14:45 -32.99026 -70.82776 18240 ft 335 kts 349°
2026-04-20 14:45 -32.96699 -70.83117 18900 ft 337 kts 344°
2026-04-20 14:45 -32.94422 -70.83829 19476 ft 340 kts 340°
2026-04-20 14:45 -32.92128 -70.84580 20106 ft 344 kts 340°
2026-04-20 14:46 -32.89807 -70.85332 20781 ft 347 kts 339°
2026-04-20 14:46 -32.87470 -70.86090 21442 ft 349 kts 339°
2026-04-20 14:46 -32.85115 -70.86852 22102 ft 352 kts 339°
2026-04-20 14:46 -32.82737 -70.87620 22775 ft 355 kts 339°
2026-04-20 14:47 -32.80342 -70.88396 23425 ft 358 kts 339°
2026-04-20 14:47 -32.77929 -70.89177 24032 ft 361 kts 339°
2026-04-20 14:47 -32.75502 -70.89961 24577 ft 362 kts 338°
2026-04-20 14:48 -32.70640 -70.91528 25562 ft 366 kts 338°
2026-04-20 14:48 -32.68180 -70.92324 26128 ft 367 kts 337°
2026-04-20 14:48 -32.65715 -70.93124 26669 ft 369 kts 337°
2026-04-20 14:48 -32.63232 -70.93927 27185 ft 370 kts 337°
2026-04-20 14:49 -32.60742 -70.94732 27698 ft 372 kts 336°
2026-04-20 14:49 -32.58239 -70.95541 28236 ft 373 kts 336°
2026-04-20 14:49 -32.55726 -70.96353 28753 ft 375 kts 336°
2026-04-20 14:49 -32.53200 -70.97167 29183 ft 377 kts 336°
2026-04-20 14:50 -32.50662 -70.97986 29676 ft 378 kts 336°
2026-04-20 14:50 -32.48118 -70.98804 30174 ft 380 kts 336°
2026-04-20 14:50 -32.45557 -70.99626 30565 ft 382 kts 336°
2026-04-20 14:50 -32.42977 -71.00453 30951 ft 385 kts 335°
2026-04-20 14:51 -32.40392 -71.01285 31354 ft 387 kts 335°
2026-04-20 14:51 -32.37785 -71.02123 31764 ft 389 kts 335°
2026-04-20 14:51 -32.35199 -71.02953 32116 ft 390 kts 335°
2026-04-20 14:52 -32.30077 -71.04572 32204 ft 366 kts 335°
2026-04-20 14:52 -32.27665 -71.05324 32205 ft 352 kts 334°
2026-04-20 14:52 -32.25329 -71.06065 32204 ft 346 kts 334°
2026-04-20 14:53 -32.20723 -71.07553 32199 ft 341 kts 333°
2026-04-20 14:53 -32.16164 -71.09026 32197 ft 339 kts 333°
2026-04-20 14:54 -32.11601 -71.10493 32191 ft 340 kts 333°
2026-04-20 14:54 -32.07039 -71.11948 32183 ft 339 kts 333°
2026-04-20 14:55 -32.02504 -71.13389 32182 ft 340 kts 333°
2026-04-20 14:55 -31.97948 -71.14840 32142 ft 339 kts 333°
2026-04-20 14:56 -31.93402 -71.16287 32163 ft 338 kts 333°
2026-04-20 14:56 -31.88868 -71.17731 32167 ft 337 kts 332°
2026-04-20 14:57 -31.84343 -71.19166 32173 ft 337 kts 333°
2026-04-20 14:57 -31.79809 -71.20595 32174 ft 338 kts 333°
2026-04-20 14:57 -31.77442 -71.21047 32176 ft 354 kts 344°
2026-04-20 14:58 -31.74968 -71.20973 32175 ft 363 kts 349°
2026-04-20 14:58 -31.69905 -71.20650 32183 ft 369 kts 349°
2026-04-20 14:58 -31.67293 -71.20503 32194 ft 384 kts 349°
2026-04-20 14:59 -31.64575 -71.20356 32191 ft 397 kts 350°
2026-04-20 14:59 -31.61810 -71.20192 32044 ft 395 kts 350°
2026-04-20 14:59 -31.59068 -71.20010 31373 ft 394 kts 350°
2026-04-20 14:59 -31.56339 -71.19825 30786 ft 392 kts 351°
2026-04-20 15:00 -31.53638 -71.19641 30321 ft 386 kts 350°
2026-04-20 15:00 -31.50970 -71.19470 29755 ft 382 kts 350°
2026-04-20 15:00 -31.48328 -71.19310 29169 ft 379 kts 351°
2026-04-20 15:00 -31.45708 -71.19155 28481 ft 377 kts 351°
2026-04-20 15:01 -31.43094 -71.19002 27876 ft 375 kts 352°
2026-04-20 15:01 -31.40497 -71.18852 27308 ft 373 kts 352°
2026-04-20 15:01 -31.37904 -71.18701 26748 ft 372 kts 352°
2026-04-20 15:01 -31.35334 -71.18546 26313 ft 368 kts 353°
2026-04-20 15:02 -31.32789 -71.18390 25877 ft 365 kts 353°
2026-04-20 15:02 -31.30260 -71.18237 25418 ft 362 kts 353°
2026-04-20 15:02 -31.27755 -71.18086 24974 ft 359 kts 353°
2026-04-20 15:02 -31.25300 -71.17940 24516 ft 358 kts 354°
2026-04-20 15:03 -31.22814 -71.17791 24055 ft 356 kts 354°
2026-04-20 15:03 -31.20343 -71.17643 23528 ft 355 kts 354°
2026-04-20 15:03 -31.17891 -71.17495 23071 ft 350 kts 354°
2026-04-20 15:03 -31.15472 -71.17349 22630 ft 345 kts 354°
2026-04-20 15:04 -31.13083 -71.17204 22197 ft 341 kts 354°
2026-04-20 15:04 -31.10729 -71.17061 21772 ft 337 kts 354°
2026-04-20 15:04 -31.08396 -71.16919 21349 ft 333 kts 355°
2026-04-20 15:04 -31.06093 -71.16778 20937 ft 329 kts 354°
2026-04-20 15:05 -31.03821 -71.16641 20534 ft 325 kts 355°
2026-04-20 15:05 -31.01575 -71.16504 20133 ft 321 kts 355°
2026-04-20 15:05 -30.99354 -71.16371 19741 ft 319 kts 355°
2026-04-20 15:05 -30.97148 -71.16241 19344 ft 316 kts 355°
2026-04-20 15:06 -30.94985 -71.16114 18989 ft 314 kts 356°
2026-04-20 15:06 -30.92824 -71.15984 18686 ft 309 kts 356°
2026-04-20 15:06 -30.90684 -71.15857 18401 ft 306 kts 356°
2026-04-20 15:06 -30.88565 -71.15733 18087 ft 304 kts 356°
2026-04-20 15:07 -30.86454 -71.15610 17793 ft 303 kts 356°
2026-04-20 15:07 -30.84351 -71.15485 17492 ft 302 kts 356°
2026-04-20 15:07 -30.82262 -71.15358 17212 ft 300 kts 357°
2026-04-20 15:07 -30.80181 -71.15230 16926 ft 299 kts 357°
2026-04-20 15:08 -30.78109 -71.15106 16632 ft 297 kts 357°
2026-04-20 15:08 -30.76054 -71.14985 16348 ft 295 kts 357°
2026-04-20 15:08 -30.74010 -71.14865 16058 ft 294 kts 358°
2026-04-20 15:08 -30.71964 -71.14746 15786 ft 294 kts 358°
2026-04-20 15:09 -30.69929 -71.14626 15505 ft 292 kts 358°
2026-04-20 15:09 -30.67902 -71.14506 15219 ft 291 kts 358°
2026-04-20 15:09 -30.65888 -71.14384 14931 ft 288 kts 359°
2026-04-20 15:09 -30.63887 -71.14263 14664 ft 287 kts 359°
2026-04-20 15:10 -30.61905 -71.14143 14394 ft 285 kts 359°
2026-04-20 15:10 -30.59927 -71.14023 14122 ft 284 kts 359°
2026-04-20 15:10 -30.57985 -71.13908 13842 ft 282 kts 359°
2026-04-20 15:10 -30.56030 -71.13794 13558 ft 281 kts 360°
2026-04-20 15:11 -30.54084 -71.13682 13287 ft 280 kts 360°
2026-04-20 15:11 -30.52138 -71.13568 13017 ft 279 kts 360°
2026-04-20 15:11 -30.50207 -71.13453 12751 ft 278 kts
2026-04-20 15:11 -30.48273 -71.13337 12482 ft 278 kts
2026-04-20 15:12 -30.46344 -71.13222 12214 ft 277 kts
2026-04-20 15:12 -30.44419 -71.13106 11949 ft 276 kts
2026-04-20 15:12 -30.42502 -71.12990 11683 ft 275 kts
2026-04-20 15:12 -30.40591 -71.12873 11415 ft 274 kts
2026-04-20 15:13 -30.38682 -71.12760 11025 ft 274 kts
2026-04-20 15:13 -30.36786 -71.12647 10739 ft 272 kts
2026-04-20 15:13 -30.34901 -71.12534 10478 ft 271 kts
2026-04-20 15:13 -30.33021 -71.12421 10213 ft 270 kts
2026-04-20 15:14 -30.31150 -71.12310 9945 ft 269 kts
2026-04-20 15:14 -30.29282 -71.12200 9675 ft 269 kts
2026-04-20 15:14 -30.27440 -71.12093 9415 ft 268 kts
2026-04-20 15:14 -30.25603 -71.11988 9162 ft 261 kts
2026-04-20 15:15 -30.23812 -71.11881 8909 ft 254 kts
2026-04-20 15:15 -30.22052 -71.11747 8525 ft 253 kts
2026-04-20 15:15 -30.20300 -71.11593 8159 ft 252 kts
2026-04-20 15:15 -30.18554 -71.11436 7796 ft 251 kts
2026-04-20 15:16 -30.16832 -71.11280 7436 ft 246 kts
2026-04-20 15:16 -30.15141 -71.11130 7087 ft 240 kts
2026-04-20 15:16 -30.13499 -71.10989 6747 ft 233 kts
2026-04-20 15:16 -30.11935 -71.10658 6416 ft 226 kts 19°
2026-04-20 15:17 -30.10553 -71.09835 6085 ft 221 kts 30°
2026-04-20 15:17 -30.09256 -71.08923 5774 ft 216 kts 30°
2026-04-20 15:17 -30.07978 -71.08032 5463 ft 213 kts 30°
2026-04-20 15:17 -30.06719 -71.07155 5192 ft 207 kts 30°
2026-04-20 15:18 -30.05524 -71.06323 4875 ft 200 kts 31°
2026-04-20 15:18 -30.04352 -71.05509 4580 ft 193 kts 31°
2026-04-20 15:18 -30.03152 -71.04881 4304 ft 187 kts 17°
2026-04-20 15:18 -30.01894 -71.04623 4049 ft 181 kts
2026-04-20 15:19 -30.00656 -71.04705 3790 ft 176 kts 349°
2026-04-20 15:19 -29.99493 -71.05092 3546 ft 174 kts 336°
2026-04-20 15:19 -29.98436 -71.05762 3296 ft 174 kts 323°
2026-04-20 15:19 -29.97542 -71.06688 3042 ft 173 kts 309°
2026-04-20 15:20 -29.96853 -71.07821 2790 ft 173 kts 297°
2026-04-20 15:20 -29.96323 -71.09059 2536 ft 169 kts 295°
2026-04-20 15:20 -29.95813 -71.10243 2310 ft 161 kts 295°
2026-04-20 15:20 -29.95324 -71.11373 2081 ft 152 kts 295°
2026-04-20 15:21 -29.94878 -71.12409 1867 ft 138 kts 295°
2026-04-20 15:21 -29.94463 -71.13373 1676 ft 131 kts 295°
2026-04-20 15:21 -29.94063 -71.14302 1481 ft 127 kts 295°
2026-04-20 15:21 -29.93670 -71.15216 1309 ft 126 kts 296°
2026-04-20 15:22 -29.93283 -71.16116 1124 ft 124 kts 296°
2026-04-20 15:22 -29.92909 -71.16990 944 ft 122 kts 296°
2026-04-20 15:22 -29.92537 -71.17860 762 ft 120 kts 296°
2026-04-20 15:22 -29.92171 -71.18722 582 ft 119 kts 296°
2026-04-20 15:23 -29.91815 -71.19556 475 ft 106 kts 296°
2026-04-20 15:23 -29.91613 -71.20022 471 ft 26 kts 296°
2026-04-20 15:23 -29.91548 -71.20178 478 ft 18 kts 295°
2026-04-20 15:23 -29.91536 -71.20261 477 ft 8 kts 234°
2026-04-20 15:24 -29.91576 -71.20289 475 ft 6 kts 205°
2026-04-20 15:24 -29.91621 -71.20313 480 ft 8 kts 205°
2026-04-20 15:24 -29.91651 -71.20331 480 ft 4 kts 207°
2026-04-20 15:24 -29.91660 -71.20336 480 ft 1 kts 205°
2026-04-20 15:25 -29.91667 -71.20340 480 ft 0 kts 206°